GFSFLT2_700_rhum_000.txt.gz
RH
20 11 12 15 15 16 16 14 11 8 8 7 7 8 9 10 10 9 10 19 32 37 46 67 79 92 94
42 21 18 28 64 52 20 23 14 10 8 7 6 6 6 6 6 6 5 6 11 29 34 65 61 68 89
78 81 83 80 85 84 90 74 31 21 11 9 7 6 6 18 18 7 4 4 5 32 39 60 69 71 70
85 81 76 61 63 53 53 50 78 81 27 27 44 62 48 34 38 29 26 6 4 22 54 40 44 85 79
82 81 66 52 52 72 71 54 68 90 85 74 65 82 92 92 81 72 63 24 9 19 36 50 35 65 74
80 88 49 52 44 39 88 84 71 54 84 82 79 65 46 66 66 81 82 62 27 20 20 25 69 79 76
100 62 48 42 44 51 88 76 58 64 91 48 54 65 75 74 85 82 96 83 55 35 28 25 57 76 58
46 50 47 32 54 52 55 62 72 81 100 78 85 87 94 81 91 94 99 99 74 54 53 45 39 37 32
42 48 34 35 44 58 59 98 86 91 97 95 96 95 93 96 98 96 96 89 74 64 55 48 51 43 36
40 34 32 35 45 78 97 99 100 92 97 95 96 95 83 96 96 96 99 94 73 62 54 50 50 45 41
37 30 33 39 64 92 97 96 97 93 97 96 91 93 95 80 96 97 98 100 99 84 72 65 79 60 55
36 32 38 75 92 96 95 94 93 86 92 100 97 97 95 89 89 97 98 98 100 100 100 100 100 100 100
33 60 94 95 95 92 89 92 92 97 100 100 97 96 94 91 93 96 99 99 97 96 99 99 97 99 90
91 95 97 98 98 100 97 100 100 99 97 97 97 96 95 95 96 96 98 100 96 97 97 97 97 98 98
98 97 98 97 99 100 99 97 97 96 96 96 96 96 96 96 96 97 96 97 97 97 96 96 97 97 97
99 99 97 98 97 97 97 97 97 97 96 96 96 96 96 96 97 97 96 96 97 97 96 96 96 96 95
98 98 98 98 97 97 97 97 97 97 96 97 96 96 96 97 97 96 96 96 96 96 96 96 96 95 95

GFSFLT2_700_rhum_003.txt.gz
RH
19 8 8 15 18 32 48 66 51 45 41 76 46 71 33 16 13 10 11 21 28 22 17 41 50 56 88
15 17 23 31 55 73 69 64 57 64 61 100 96 65 97 76 22 43 13 7 5 6 5 5 8 11 26
49 49 69 81 72 71 58 38 40 43 48 70 71 100 78 88 98 79 88 66 11 5 3 2 2 3 7
98 90 93 72 86 80 41 34 30 33 34 34 48 96 86 99 99 100 100 66 47 13 9 6 5 6 4
99 100 85 53 48 44 47 37 27 33 41 52 68 94 91 94 94 99 100 84 55 36 22 15 7 4 5
100 100 63 49 44 46 52 49 27 28 58 49 72 73 73 71 59 62 61 80 82 78 93 80 19 8 5
99 80 74 47 52 48 44 39 39 39 63 54 97 92 100 94 92 81 79 68 41 51 79 88 45 14 4
74 52 49 50 60 46 41 39 39 38 72 95 96 93 96 95 96 99 97 70 76 54 43 49 39 15 3
48 47 52 54 47 50 39 52 50 66 82 99 90 94 95 94 96 95 92 93 77 87 71 38 34 15 6
42 49 50 41 44 63 84 92 94 78 78 91 90 96 90 85 93 96 94 88 75 82 82 76 63 62 24
52 44 36 36 55 90 98 100 96 93 95 98 90 90 94 88 94 95 96 97 98 100 86 90 80 74 64
43 33 37 74 86 90 96 99 100 100 99 100 98 95 93 85 87 96 97 97 98 100 94 96 100 93 63
38 62 91 90 94 99 95 98 96 97 99 100 100 96 96 88 88 95 96 97 97 99 99 100 97 95 83
97 95 95 97 98 99 97 98 97 96 98 97 97 97 96 95 94 98 96 96 96 97 95 96 98 99 98
97 96 97 98 98 98 98 97 98 97 97 97 97 97 96 97 98 99 96 96 95 96 96 96 98 98 98
98 98 97 98 98 98 98 98 97 97 97 97 97 96 97 97 98 97 96 96 96 96 96 97 97 97 97
98 98 98 98 98 97 98 98 98 97 96 97 97 97 96 97 96 96 96 96 96 96 96 97 96 96 96

GFSFLT2_700_rhum_006.txt.gz
RH
6 7 8 11 11 15 32 61 58 45 47 40 29 37 56 67 44 55 89 90 38 24 15 15 45 50 77
11 15 19 18 20 24 30 55 68 68 65 34 27 26 27 30 24 34 80 85 93 78 79 55 35 32 46
28 27 28 42 52 36 36 41 38 37 33 29 31 32 27 23 24 25 67 98 98 96 88 53 14 9 13
76 73 80 71 100 84 48 39 29 31 30 33 32 29 30 58 72 72 86 97 96 98 99 62 24 9 3
100 100 97 64 55 54 48 35 29 39 33 26 34 35 39 46 58 67 76 82 96 98 98 81 32 14 7
100 88 60 63 50 51 50 43 34 42 38 30 37 34 44 63 79 78 85 82 85 95 95 88 50 19 11
98 64 60 67 74 60 53 49 36 33 45 34 52 66 82 89 94 93 92 94 88 82 81 60 40 22 10
63 79 82 74 73 64 54 42 36 45 84 71 68 71 83 95 96 96 98 100 98 91 75 48 10 7 8
56 58 62 62 57 70 71 87 58 72 85 93 81 80 87 95 96 97 97 97 94 93 76 68 62 19 4
51 52 50 46 71 100 100 100 92 78 88 94 86 86 78 78 96 97 98 98 95 93 84 60 58 62 31
55 41 43 80 95 100 100 100 100 93 100 100 99 90 95 85 83 97 100 100 100 100 86 85 86 87 77
46 69 93 94 97 100 100 100 100 100 100 100 100 99 94 83 80 95 100 100 98 97 97 97 99 93 78
94 96 100 100 100 97 98 99 99 98 98 99 98 95 96 88 83 95 100 96 96 95 96 98 94 98 99
97 99 99 99 99 99 97 98 97 96 98 97 96 98 96 94 94 98 97 96 96 96 91 100 89 89 99
99 98 98 97 98 98 98 98 98 98 97 98 96 95 95 97 97 98 96 97 96 97 93 96 99 98 99
98 97 96 97 97 97 98 98 100 99 97 98 98 98 97 98 97 97 96 97 95 96 97 96 96 98 98
97 97 98 98 97 97 97 98 99 97 98 98 96 96 97 96 97 96 97 96 96 95 97 97 97 97 96

GFSFLT2_700_rhum_009.txt.gz
RH
7 7 7 9 9 14 24 37 38 30 41 33 29 29 27 24 23 26 38 74 100 100 100 92 88 90 80
7 9 10 10 17 24 34 36 52 54 53 37 30 27 25 24 29 40 44 72 76 100 84 90 99 99 90
16 23 31 66 60 58 46 42 42 40 39 39 36 34 34 31 25 22 33 68 38 26 78 94 95 98 98
60 89 97 74 85 67 42 39 36 36 43 46 43 36 33 34 33 29 23 22 63 73 68 88 93 96 97
100 98 79 69 60 50 49 44 35 46 44 32 34 34 33 37 41 44 46 67 56 65 76 84 89 95 97
100 89 83 60 58 68 78 60 38 41 41 24 48 39 54 63 66 73 82 73 70 82 89 91 70 85 86
100 85 57 69 98 89 58 50 43 43 83 53 80 70 74 72 76 84 88 88 90 82 66 60 60 57 72
72 62 83 92 71 66 67 91 90 87 98 86 84 74 77 74 84 94 96 96 98 98 100 88 66 46 64
54 61 63 63 78 99 99 100 90 88 92 93 86 79 77 64 70 88 97 99 98 95 92 79 63 38 47
55 55 69 100 100 100 100 98 97 87 95 98 91 91 66 62 70 89 96 98 96 96 96 90 82 67 26
67 93 98 98 99 100 100 100 99 95 99 100 94 93 93 78 74 89 94 96 96 96 97 97 86 70 38
96 98 96 96 97 99 99 100 100 100 100 100 99 100 97 85 84 95 96 96 96 96 96 96 96 79 68
97 99 99 99 100 97 99 98 98 97 98 98 97 97 97 90 90 97 96 97 97 96 97 96 98 99 77
97 98 98 98 98 97 96 95 96 96 98 98 98 97 96 94 96 98 96 96 96 94 96 94 86 89 87
98 98 98 97 97 97 96 96 97 95 97 98 97 98 97 96 97 97 97 97 94 95 96 98 93 82 92
99 98 96 97 96 97 98 97 96 97 98 98 97 97 98 97 96 97 97 96 96 97 96 96 95 97 97
100 100 98 99 98 97 96 96 98 98 98 97 96 97 98 97 96 93 97 96 96 96 96 97 97 95 96

GFSFLT2_700_rhum_012.txt.gz
RH
18 14 12 11 10 12 17 31 42 31 28 27 29 66 66 65 90 100 100 100 100 95 95 90 100 96 96
15 13 12 11 12 12 17 26 49 41 34 35 38 34 38 41 35 45 86 100 100 83 88 96 95 88 86
16 15 17 41 38 31 33 37 39 36 36 43 42 41 41 39 83 95 71 45 26 39 46 43 46 64 78
51 41 76 100 93 78 42 37 35 36 39 35 29 30 32 33 30 29 29 30 30 31 30 25 40 76 54
84 96 100 82 71 62 48 42 38 42 34 27 37 40 43 48 44 40 42 44 40 37 49 68 91 90 72
100 96 84 77 57 54 56 50 35 35 64 62 79 68 72 72 69 66 64 64 58 60 66 58 48 57 86
96 82 60 59 64 63 56 64 74 69 88 78 80 73 76 77 78 74 68 64 74 86 80 77 68 67 62
65 62 65 66 71 89 92 90 84 81 98 94 73 77 83 77 78 78 76 77 81 94 98 100 99 93 82
56 59 77 96 99 99 93 97 86 78 96 90 78 80 83 71 72 83 86 88 95 96 96 95 96 98 97
65 90 100 100 100 100 100 97 93 73 94 96 84 91 85 72 76 84 74 85 97 96 97 97 99 98 91
91 98 98 98 98 99 100 100 94 86 97 100 91 95 99 83 78 80 83 96 99 98 97 97 97 97 88
96 95 93 94 96 96 98 98 100 100 98 100 97 99 94 84 88 99 96 100 97 98 97 97 97 98 99
90 95 97 97 97 95 97 97 97 97 98 98 98 99 98 96 98 95 97 99 97 96 97 97 97 100 100
94 96 96 96 96 95 95 95 94 97 98 98 99 98 98 97 97 98 98 91 94 95 96 99 100 94 82
95 93 91 83 96 97 97 97 97 95 94 98 97 97 96 97 97 97 92 94 96 97 97 99 99 90 82
97 97 88 88 95 98 98 97 95 95 96 96 96 97 97 97 89 86 95 96 97 96 97 96 94 99 100
100 99 100 100 99 98 96 96 97 94 97 96 96 96 97 95 96 100 97 97 96 96 97 97 98 97 100

GFSFLT2_700_rhum_018.txt.gz
RH
12 9 5 5 6 10 16 29 41 39 39 45 81 95 98 57 45 57 94 100 100 100 98 100 97 95 87
6 5 8 12 16 21 31 39 46 48 51 50 46 48 70 50 99 100 100 96 94 44 75 98 95 77 74
13 17 19 24 26 33 42 38 38 40 46 52 61 73 70 63 57 47 38 33 34 38 56 95 98 98 94
27 37 40 41 48 42 33 39 55 73 77 76 86 86 85 84 78 71 68 66 63 56 41 28 25 26 28
51 50 46 44 41 42 63 68 58 76 85 73 84 76 73 74 74 72 70 68 68 68 66 63 49 32 29
45 42 43 54 71 72 74 74 59 73 89 70 86 70 76 86 88 87 84 78 76 73 69 65 63 59 39
44 57 73 75 81 81 77 77 75 81 95 72 81 69 82 81 90 100 98 94 86 76 69 65 59 55 54
76 79 81 86 93 94 89 85 77 83 98 78 81 77 80 80 98 100 96 91 80 71 62 54 50 51 52
80 84 86 92 100 95 92 88 78 76 97 83 79 82 81 97 100 97 82 75 70 62 56 50 51 55 65
76 83 91 95 100 100 93 86 90 76 96 87 83 96 75 97 100 96 87 87 80 73 73 88 96 95 88
78 85 86 85 86 84 89 100 94 88 98 98 88 92 99 85 98 100 100 99 95 96 96 96 95 95 90
85 84 79 84 86 88 94 97 100 100 96 96 93 96 95 91 94 89 93 96 96 96 96 96 97 97 97
83 84 87 90 92 88 92 94 97 98 96 92 95 98 99 97 94 96 88 87 96 93 95 96 95 96 96
86 87 89 89 94 94 88 89 81 92 99 96 96 100 93 99 97 95 96 95 89 96 100 98 96 96 96
91 89 88 89 93 97 97 94 94 86 87 98 98 99 100 96 93 93 95 96 99 98 100 98 96 96 99
94 94 88 88 87 94 98 97 94 93 88 89 89 91 90 84 81 83 94 95 96 97 97 98 98 73 73
97 95 91 90 92 91 92 91 92 96 90 91 93 91 80 76 85 99 92 91 96 95 94 98 97 80 96

GFSFLT2_700_rhum_021.txt.gz
RH
8 7 5 8 13 23 29 29 24 23 24 26 29 36 38 35 30 30 36 86 97 96 97 98 99 99 99
5 5 8 17 22 21 23 26 30 42 58 62 62 60 64 67 69 68 68 64 100 90 99 94 98 99 100
8 11 18 19 20 24 31 46 62 66 68 69 72 76 72 72 71 71 70 70 69 68 53 46 76 94 98
19 22 22 27 33 49 53 59 65 68 66 69 76 76 76 76 73 72 70 67 66 67 67 66 59 40 26
29 28 30 48 59 60 63 62 58 72 68 63 72 66 67 70 76 79 86 90 88 76 66 63 63 63 59
29 35 64 67 69 67 68 67 50 63 73 62 78 67 80 82 84 88 86 83 80 81 81 76 70 64 63
46 70 70 75 75 70 64 65 51 54 82 61 73 72 84 96 99 92 81 75 71 71 73 71 70 70 64
72 76 80 81 86 83 78 71 53 58 96 65 76 77 84 99 98 93 92 91 88 80 73 68 64 57 52
80 83 84 86 92 86 86 77 61 62 90 71 74 73 78 98 97 96 96 96 94 92 89 83 74 63 50
70 78 84 90 97 100 100 91 87 65 91 75 74 86 57 85 95 97 96 99 99 100 99 94 94 93 82
73 80 85 86 91 97 100 100 94 92 99 88 78 92 93 74 70 87 94 92 90 95 97 97 97 97 88
83 85 81 82 91 94 98 100 100 99 94 92 85 96 94 82 76 78 84 95 95 94 95 96 98 97 99
82 84 85 88 89 89 92 95 98 99 99 96 93 92 97 87 83 84 92 84 96 96 96 96 95 95 92
85 86 87 87 89 88 84 83 82 83 99 96 95 99 88 92 90 88 94 95 93 97 96 98 98 92 97
88 86 88 87 91 91 88 85 87 83 76 92 97 97 97 95 86 81 89 92 97 95 92 96 98 97 100
94 96 93 91 90 92 96 94 89 90 88 86 77 72 79 80 89 76 84 94 97 96 96 87 88 83 31
98 98 96 94 96 95 95 93 89 94 94 92 88 87 82 73 74 100 90 90 95 97 97 98 92 97 46

GFSFLT2_700_rhum_024.txt.gz
RH
8 8 6 5 7 14 20 16 14 25 40 48 51 49 49 51 48 49 50 49 48 50 53 93 100 97 96
7 5 5 8 15 21 18 25 44 44 51 57 53 52 58 56 59 61 55 56 56 56 56 56 82 100 96
3 4 7 14 19 19 38 51 53 54 58 65 58 64 63 65 68 65 61 61 57 59 58 57 58 61 94
8 10 12 21 28 49 50 56 55 60 54 51 52 58 62 69 69 68 71 72 73 74 71 69 66 62 57
17 19 23 32 55 58 57 56 48 61 58 39 49 58 66 68 72 77 73 74 77 78 79 76 73 69 69
22 29 42 60 65 63 63 56 45 55 71 38 65 59 72 73 81 73 74 80 85 87 84 79 74 71 69
31 55 67 74 78 70 63 66 60 63 80 44 65 60 72 84 86 80 89 90 89 91 94 89 77 71 69
65 70 80 83 86 84 76 70 58 69 94 64 64 64 65 94 96 97 100 98 98 98 97 97 98 94 75
73 82 85 89 93 90 84 81 75 68 87 79 62 65 63 80 95 88 85 94 96 97 98 100 100 98 92
72 80 86 85 90 97 100 92 87 70 88 74 64 78 52 62 70 83 79 81 82 91 98 100 100 98 93
75 80 82 86 90 98 100 100 94 82 92 88 70 76 84 68 60 71 73 65 75 89 99 97 97 99 99
77 82 83 84 87 95 100 98 97 94 86 96 82 87 84 74 68 67 66 73 89 94 94 95 97 99 98
82 84 83 84 88 90 89 92 87 97 97 97 92 93 94 90 91 72 71 73 96 96 95 96 97 97 96
85 84 85 86 90 97 88 88 84 84 98 98 90 94 95 95 93 85 80 89 93 97 93 98 100 99 98
91 88 92 93 95 99 96 88 88 86 80 85 90 96 99 99 92 85 78 89 96 97 95 92 98 98 95
96 98 96 96 95 94 97 95 89 87 87 85 79 78 80 80 94 85 87 94 96 98 99 96 97 99 84
97 99 96 95 99 96 95 93 90 91 92 88 92 91 78 70 76 97 86 91 90 98 97 97 98 96 86

GFSFLT2_700_rhum_027.txt.gz
RH
6 6 5 4 3 4 8 12 12 16 36 44 46 50 48 50 47 45 46 45 45 47 45 46 55 98 100
4 3 3 4 5 10 15 14 22 43 44 52 52 52 52 51 49 51 52 53 53 51 48 47 47 47 55
3 3 4 9 11 17 21 32 46 51 52 53 47 49 48 40 43 53 58 56 56 57 62 66 65 61 59
3 4 9 12 21 30 41 53 52 54 55 54 49 54 45 47 60 60 58 56 65 69 71 70 68 70 71
7 11 12 18 38 56 57 58 54 58 56 52 52 52 49 60 66 64 63 65 67 73 78 83 85 75 69
14 15 23 47 62 64 64 64 56 56 60 53 64 55 52 61 66 72 67 73 74 79 82 83 84 91 92
19 37 60 68 72 73 69 68 59 60 70 70 67 51 54 61 74 81 84 78 80 91 95 95 95 92 90
54 65 72 76 82 87 78 73 58 60 76 83 68 56 56 58 75 90 85 87 91 84 79 81 88 98 97
69 73 81 84 88 88 83 80 66 50 71 88 65 56 48 50 70 84 88 87 82 79 75 79 88 97 90
70 77 79 79 84 87 86 85 86 59 78 78 63 74 44 41 54 66 74 76 75 68 70 83 97 95 90
73 75 81 85 84 87 96 100 99 80 94 94 71 74 83 55 48 66 68 65 62 62 74 99 97 97 93
76 80 82 84 86 92 96 100 100 99 92 100 88 87 81 71 60 61 67 67 66 66 92 98 93 96 99
84 84 86 87 89 93 91 94 92 98 100 100 96 92 96 88 75 69 74 63 70 81 95 89 94 93 88
88 89 89 90 92 93 88 91 87 86 97 100 100 100 92 94 94 84 82 77 75 94 94 87 94 96 97
92 92 91 89 88 94 95 89 90 89 83 92 96 96 94 96 92 84 81 74 86 93 96 89 85 92 92
96 95 89 89 86 87 93 94 91 91 90 94 86 76 79 79 98 88 76 78 85 94 97 90 80 91 91
97 96 95 89 92 90 93 94 89 91 91 96 90 93 84 69 78 99 86 89 82 86 96 96 88 87 92

GFSFLT2_700_rhum_030.txt.gz
RH
8 6 5 4 4 3 3 4 6 8 12 21 40 45 46 48 46 42 39 38 38 41 42 42 43 46 53
6 5 4 4 4 4 6 10 12 17 40 43 52 51 52 48 44 41 40 37 34 37 44 49 48 48 50
4 4 4 4 5 9 12 14 30 46 51 53 56 55 53 50 48 50 43 37 42 50 52 56 57 56 57
4 4 5 8 12 16 23 46 44 52 52 53 58 54 54 54 58 55 51 51 52 52 60 61 64 67 68
4 5 10 13 34 51 52 51 50 55 53 51 49 53 48 60 65 63 59 60 57 59 67 65 67 68 72
7 12 16 50 61 62 65 59 48 56 56 48 62 54 55 64 63 69 62 60 60 65 72 73 76 74 75
14 26 54 63 64 68 72 66 59 61 69 51 64 53 56 56 64 74 72 73 73 75 77 79 77 78 77
34 61 65 69 74 75 69 68 62 66 74 58 64 50 50 48 58 67 79 86 83 82 83 84 81 76 69
67 69 76 79 79 77 76 67 58 60 73 79 63 50 46 40 57 66 72 80 86 87 83 82 80 73 64
67 73 74 78 83 84 80 74 76 64 89 84 72 77 46 42 51 65 66 78 78 77 79 78 75 70 67
70 74 78 80 80 87 92 93 87 82 98 98 82 82 88 54 50 64 66 69 73 71 74 74 71 77 86
77 80 78 79 82 88 89 94 95 94 90 100 88 90 86 75 62 60 70 77 74 68 67 64 71 95 98
79 82 83 83 84 87 87 90 87 95 98 100 99 94 90 85 80 69 75 69 71 68 65 73 88 92 88
85 87 87 88 88 91 85 85 80 81 93 98 97 100 91 93 93 90 93 73 65 70 77 81 90 97 98
91 88 88 89 88 91 91 85 85 86 81 90 96 95 96 100 94 90 84 70 72 73 84 81 90 98 94
94 95 94 93 89 88 89 92 88 88 88 93 90 82 75 81 97 93 86 70 70 79 86 91 85 99 90
95 98 97 92 94 92 91 91 89 93 93 98 94 99 86 70 85 99 87 79 86 83 86 84 86 89 84

GFSFLT2_700_rhum_033.txt.gz
RH
15 11 9 6 5 4 2 2 2 3 4 7 9 17 31 37 42 45 46 42 40 37 36 35 36 37 50
10 8 6 4 3 2 2 3 4 8 13 30 37 43 44 47 47 46 43 41 40 37 35 34 33 35 44
7 5 4 3 3 3 4 6 11 33 42 43 45 48 51 51 50 47 46 45 42 41 38 36 39 50 49
5 4 3 3 4 5 6 24 39 45 48 48 50 49 52 56 53 51 53 55 54 48 46 43 48 51 53
4 3 3 4 7 15 37 42 42 47 45 41 46 48 52 53 52 53 61 71 65 54 52 49 51 56 59
4 4 5 9 31 49 50 44 30 47 47 42 48 43 46 48 48 58 65 70 69 61 56 53 58 67 66
5 6 13 47 57 53 52 50 48 53 53 44 57 48 54 51 55 63 67 68 67 58 58 58 61 70 73
7 16 46 62 64 63 59 60 54 59 69 61 61 54 57 56 62 65 72 79 78 68 61 56 63 68 73
19 58 69 75 75 70 72 66 55 60 76 79 64 57 55 52 60 65 75 75 76 77 68 66 68 71 72
60 71 75 75 83 87 87 81 78 67 84 79 70 75 49 49 51 62 68 77 81 80 69 69 73 74 70
66 70 76 81 85 90 93 91 83 73 91 92 79 83 82 61 54 62 65 72 75 71 81 80 78 80 75
68 77 80 83 84 88 88 92 91 85 89 100 94 95 90 74 65 63 70 76 75 74 76 74 77 78 77
76 80 82 83 84 86 87 90 85 92 97 100 100 96 91 85 81 68 73 74 82 73 69 66 64 70 70
79 83 86 87 87 91 87 88 81 82 90 97 97 96 90 86 87 78 90 88 82 80 72 66 69 77 86
85 86 87 88 89 93 94 88 84 81 77 88 94 94 93 96 90 92 94 85 78 71 69 66 71 77 84
90 93 91 90 88 92 93 93 90 87 83 91 89 83 80 82 97 90 79 73 72 74 80 75 62 79 86
92 94 93 90 93 96 95 94 89 90 89 94 91 95 85 70 77 99 92 83 87 83 86 84 77 77 86

GFSFLT2_700_rhum_036.txt.gz
RH
19 21 19 14 10 7 5 4 2 2 2 2 3 4 6 12 20 28 32 36 39 40 39 37 36 36 36
22 18 14 9 6 5 3 2 2 2 3 4 11 26 36 37 37 38 40 40 42 40 38 35 34 35 34
16 12 8 6 4 3 2 3 3 4 11 34 40 40 41 42 41 41 42 40 37 38 38 35 36 32 32
10 7 5 3 3 3 3 3 4 23 43 45 41 42 44 43 40 40 40 41 43 45 45 40 36 42 44
6 4 3 3 4 4 4 5 21 45 46 39 42 44 51 51 48 42 42 46 46 42 45 46 43 47 44
3 3 4 5 5 5 8 31 38 45 46 39 49 43 46 49 53 54 57 58 48 48 57 56 48 53 54
4 6 6 6 8 16 44 50 43 47 54 34 50 45 54 54 58 62 68 64 62 61 59 55 48 46 48
7 7 7 9 28 53 52 50 54 62 68 46 67 57 57 55 61 68 68 71 70 72 68 60 53 49 49
8 9 18 56 72 66 68 69 62 65 72 69 65 58 58 55 60 67 72 72 77 78 78 70 64 59 52
10 34 73 76 78 81 82 81 82 69 76 75 68 75 52 45 50 58 65 73 78 81 75 72 70 64 54
40 68 74 77 80 87 93 93 87 80 88 93 72 80 82 58 54 61 63 67 74 76 82 82 77 73 62
66 73 75 79 84 91 91 91 91 88 90 100 86 91 85 72 64 63 66 74 77 73 75 76 81 83 80
71 75 77 81 85 87 89 94 88 96 99 100 98 95 90 81 78 68 75 73 82 79 79 73 70 74 72
72 76 82 87 89 92 86 88 80 79 94 98 96 96 88 90 93 78 87 84 85 91 81 70 71 71 71
82 84 86 86 87 93 93 89 84 78 73 89 98 99 95 97 94 93 96 93 88 82 79 71 75 81 84
86 87 87 88 85 85 88 89 85 83 82 89 89 88 85 82 98 89 81 78 77 76 81 78 70 81 91
84 86 82 81 86 88 87 86 82 85 88 96 93 94 90 74 86 99 97 96 97 93 89 84 80 81 91

GFSFLT2_700_rhum_039.txt.gz
RH
85 77 38 20 22 20 15 11 8 6 4 3 2 2 2 2 2 4 8 18 25 27 29 31 31 34 34
74 25 20 22 17 13 9 6 4 3 3 3 3 3 3 6 16 27 32 32 31 29 27 29 32 35 36
21 22 19 15 10 7 5 3 3 3 4 4 4 9 25 36 39 38 33 29 26 27 28 30 32 32 31
20 16 11 8 5 3 3 3 4 4 5 7 22 45 47 43 42 38 34 32 32 32 32 32 30 28 28
12 8 5 3 3 3 4 5 5 5 13 34 47 44 47 54 51 47 44 44 46 48 49 46 42 39 35
5 4 4 4 6 6 6 6 5 22 48 42 42 44 51 47 48 50 51 55 59 58 54 53 52 48 45
4 5 6 8 7 7 6 10 35 50 54 35 51 51 59 56 60 57 59 63 62 57 55 54 54 52 52
7 8 8 8 8 8 24 47 42 54 74 46 64 60 58 58 62 66 69 68 64 64 64 64 62 61 58
8 9 9 10 34 56 60 57 55 58 73 73 69 62 59 54 60 68 68 69 74 74 75 75 73 71 62
10 11 29 64 71 73 75 72 74 65 76 82 73 74 55 49 50 58 62 73 76 76 76 76 77 74 62
13 50 63 69 76 83 86 84 85 81 91 94 79 78 79 58 49 59 67 70 77 75 79 78 75 73 68
56 64 68 75 80 87 90 92 89 86 92 99 86 86 81 68 62 63 69 78 83 77 76 78 82 83 80
63 68 74 77 82 84 86 88 83 93 100 97 95 96 92 85 80 70 78 74 80 84 84 80 80 85 84
66 72 74 77 81 82 80 82 76 80 97 100 97 95 88 89 90 81 84 83 83 88 83 76 77 77 76
72 71 72 71 79 86 87 84 81 78 77 91 98 97 95 98 95 93 97 93 89 84 82 77 81 93 94
70 70 72 75 76 80 84 90 88 89 90 94 90 89 88 91 97 88 80 77 77 78 82 76 68 78 94
68 73 76 78 82 87 90 92 87 85 91 97 90 92 88 80 86 98 95 94 94 90 93 95 86 81 89

GFSFLT2_700_rhum_042.txt.gz
RH
95 91 96 97 90 48 21 22 19 14 10 7 4 3 3 3 3 3 3 3 3 5 9 15 21 27 31
94 95 90 49 21 22 19 15 10 7 4 3 3 4 4 4 4 4 4 6 13 22 28 32 31 28 28
90 51 22 21 18 14 10 6 4 4 4 4 4 4 4 4 5 10 21 30 34 33 31 30 30 32 31
22 22 18 13 9 6 4 4 4 4 5 5 5 6 14 26 37 43 41 37 36 37 37 38 36 34 35
18 14 8 5 4 4 4 4 5 5 6 7 19 36 50 54 52 54 54 52 49 48 46 43 41 41 41
7 6 4 5 5 5 6 6 5 7 14 30 45 41 57 55 60 62 62 62 61 59 57 55 52 50 48
5 5 6 7 6 7 8 7 11 32 52 31 49 48 56 57 64 63 64 65 63 60 58 55 54 53 52
6 7 8 8 9 8 11 26 36 51 69 41 58 53 54 59 65 70 73 71 70 68 64 59 56 54 53
8 9 10 10 15 32 50 46 47 55 68 72 64 56 53 52 61 66 70 69 69 69 68 66 65 62 59
10 11 14 41 57 59 61 61 66 55 73 73 68 72 51 49 50 57 63 71 71 71 72 70 68 64 58
13 41 56 59 65 71 73 72 71 70 88 88 75 80 77 57 48 59 64 66 72 73 78 79 77 72 66
49 55 58 63 68 66 68 70 77 88 90 94 82 84 77 68 63 65 77 78 75 70 72 74 79 82 83
52 56 57 56 58 59 70 76 81 94 100 98 90 86 85 79 76 73 78 72 83 82 79 74 76 81 82
50 53 55 60 68 71 72 74 73 78 91 98 98 96 91 92 87 85 94 90 90 87 82 76 76 78 79
53 55 57 58 71 74 76 75 74 71 75 88 93 95 98 97 92 96 95 87 86 82 85 86 87 91 92
58 54 56 66 73 79 81 84 82 83 84 92 90 86 86 88 95 86 79 79 80 80 87 82 72 79 93
61 60 59 69 74 80 85 72 70 74 74 80 81 85 84 74 77 98 89 94 94 88 98 94 76 72 86

GFSFLT2_700_rhum_045.txt.gz
RH
100 99 98 97 98 96 94 88 57 24 23 22 16 11 7 5 5 5 4 4 4 3 3 3 4 4 5
99 98 97 97 97 94 70 26 22 19 13 7 5 5 5 4 4 4 4 3 3 4 4 6 11 18 24
97 98 97 97 79 25 22 17 11 6 5 5 5 4 4 4 4 4 5 5 7 12 19 29 35 35 34
97 94 48 22 19 13 8 5 5 5 5 5 4 4 6 9 13 19 24 29 33 35 35 37 39 39 38
30 21 16 10 6 5 5 5 5 5 5 6 9 21 38 43 43 47 49 49 49 49 47 47 46 44 42
12 7 6 6 5 5 5 5 5 6 10 20 35 39 45 48 53 54 54 56 57 56 57 56 56 54 52
6 6 6 6 5 6 6 6 10 34 36 27 49 41 48 54 60 63 65 66 64 63 61 58 57 57 57
6 6 6 6 6 6 12 25 35 45 47 32 45 40 46 48 58 65 68 70 69 64 60 58 58 58 57
6 7 7 7 11 28 41 42 40 47 57 50 47 44 42 43 51 58 67 69 69 66 64 61 58 58 55
7 7 9 29 42 45 46 45 48 50 64 54 52 56 42 47 54 62 60 66 70 70 68 67 66 63 58
11 30 42 48 52 52 52 52 57 63 71 66 56 60 62 55 54 65 71 74 73 74 79 80 77 74 68
40 44 49 53 54 56 59 58 64 73 76 82 74 74 65 62 60 63 74 72 72 74 72 74 76 79 76
45 47 49 48 48 53 65 71 77 89 94 93 85 78 76 70 68 70 74 70 79 79 75 71 72 76 77
44 48 45 48 58 64 66 70 69 70 76 79 79 72 64 70 72 78 89 84 86 80 74 73 76 80 86
43 49 48 49 59 64 68 72 63 56 61 72 75 72 72 75 75 91 92 86 82 76 77 75 80 90 90
46 51 54 56 57 65 70 69 53 60 62 48 58 60 62 65 87 84 79 74 73 76 80 70 63 79 81
51 55 58 62 67 70 65 53 51 72 70 44 49 57 53 53 67 96 81 77 77 80 89 88 79 89 88

GFSFLT2_700_rhum_048.txt.gz
RH
100 99 98 98 99 97 98 98 97 97 98 97 94 42 24 21 15 11 9 7 6 6 5 4 4 3 3
99 98 98 96 97 99 98 96 96 96 67 26 22 17 11 7 6 6 5 5 4 4 4 3 4 4 4
98 97 99 96 97 94 95 94 42 21 15 8 6 6 6 5 4 4 4 3 4 5 7 11 14 17 21
100 100 97 97 97 69 24 18 12 6 6 6 5 4 4 4 4 5 8 14 18 20 21 23 25 29 33
97 99 92 32 21 14 8 6 6 5 4 4 4 7 11 17 23 28 31 32 32 33 34 36 37 38 40
42 24 18 10 7 6 6 5 4 5 6 12 31 28 30 31 34 35 36 38 40 41 42 44 46 50 51
12 8 7 6 6 6 5 5 6 27 28 24 30 26 36 39 40 40 39 42 44 46 47 47 48 49 51
7 6 6 6 5 5 7 18 33 37 30 27 41 39 46 47 53 55 53 46 48 49 46 44 46 46 45
6 6 6 6 6 18 32 33 31 38 42 37 43 38 41 46 57 66 67 63 63 57 53 54 52 50 48
5 5 6 15 30 32 34 33 34 34 35 32 36 37 28 35 42 56 65 69 66 68 69 68 69 67 61
6 13 29 33 36 36 36 38 49 60 64 56 47 50 38 31 35 48 60 70 67 70 72 72 73 73 66
28 32 36 40 39 39 46 53 57 62 69 63 53 54 44 36 33 40 55 65 65 71 73 72 74 78 78
35 38 42 45 42 48 56 56 58 68 74 68 61 61 48 44 38 40 51 59 78 74 70 70 68 70 71
39 42 46 49 47 47 50 52 55 63 59 56 69 62 41 43 46 44 54 62 79 83 68 65 70 73 75
37 39 43 49 54 57 58 60 59 53 46 63 80 75 60 37 40 54 56 66 81 72 68 63 72 87 88
41 44 48 52 57 62 65 63 49 44 46 69 76 73 52 32 41 50 56 70 73 70 74 70 59 80 94
49 51 53 55 58 62 56 45 43 43 48 68 73 66 34 25 40 65 58 71 77 74 79 76 64 71 88

GFSFLT2_700_rhum_051.txt.gz
RH
98 100 99 99 100 98 99 96 96 94 94 86 88 88 92 89 79 53 36 22 15 9 7 6 6 6 5
99 95 99 100 98 96 97 89 91 90 92 95 100 95 53 26 18 11 8 7 7 6 5 4 3 3 3
99 98 100 98 96 92 94 96 97 99 97 64 24 14 8 7 7 6 4 4 3 3 4 5 7 8 11
99 98 98 94 98 100 100 99 75 24 13 8 7 6 5 4 3 4 6 10 14 14 14 15 17 18 18
95 90 99 100 100 84 37 17 9 7 6 5 4 4 4 11 19 21 20 18 20 21 22 21 21 21 23
99 100 98 54 24 12 7 7 6 5 4 4 8 16 22 22 26 29 30 30 31 32 28 22 20 20 23
32 22 14 8 8 7 6 5 5 8 15 25 22 20 29 35 36 36 38 40 41 40 37 29 23 22 24
9 8 8 6 5 5 5 6 22 30 24 22 23 21 24 30 35 39 44 48 48 47 46 45 45 44 42
6 5 5 5 5 6 21 27 30 28 28 28 34 26 29 29 34 42 47 53 54 57 58 56 56 56 54
4 4 5 6 18 28 31 28 30 37 37 38 40 35 20 27 28 29 30 40 45 50 58 64 64 62 58
4 6 16 27 31 32 27 31 38 45 48 42 44 45 40 33 30 32 34 34 34 40 52 60 64 66 61
15 24 27 29 33 33 32 36 43 47 50 48 47 46 41 45 46 38 34 40 38 40 50 64 70 69 68
25 27 29 33 37 39 40 40 42 48 57 65 59 46 44 55 53 49 32 27 46 53 47 60 66 67 61
30 32 34 36 40 43 47 51 51 56 61 58 47 44 49 58 59 49 31 26 37 50 44 60 70 71 67
35 37 39 41 45 47 49 52 52 55 46 44 44 47 51 57 58 52 33 29 50 52 49 60 69 73 79
37 38 41 44 45 50 52 54 55 46 49 54 51 47 48 54 64 41 27 28 50 52 49 57 63 74 89
40 43 45 48 50 54 56 55 50 55 54 55 63 60 47 44 54 48 34 44 60 58 63 70 70 70 84

GFSFLT2_700_rhum_054.txt.gz
RH
100 99 98 96 99 99 100 97 97 96 98 99 100 95 89 88 84 85 89 79 43 24 17 11 9 8 8
99 100 100 99 96 98 94 93 92 100 97 98 97 96 94 95 84 43 20 12 9 8 8 7 5 4 3
100 100 98 92 100 99 100 98 97 98 96 91 87 68 31 17 10 8 7 6 5 4 3 4 5 8 11
92 84 89 95 99 100 100 97 96 93 68 31 16 10 8 7 6 4 4 4 7 11 12 12 14 18 19
88 94 100 100 100 100 95 70 30 15 10 8 8 7 5 4 6 15 16 15 17 20 22 24 25 26 25
100 98 96 90 43 22 15 9 9 8 7 6 4 4 16 22 21 21 22 25 28 30 31 32 32 32 33
76 35 16 11 10 9 8 6 5 4 3 10 17 22 21 23 21 19 21 27 31 33 35 35 36 38 39
11 10 8 6 5 4 4 4 4 11 18 20 20 24 26 30 30 28 28 28 28 30 30 32 34 39 43
3 3 3 3 3 3 4 12 23 24 21 24 31 30 34 36 35 36 38 34 34 32 30 32 34 36 38
2 2 3 3 5 14 21 25 23 28 30 30 36 31 25 35 37 42 43 40 35 35 35 33 34 34 38
3 5 7 14 20 24 26 26 25 30 32 28 34 34 32 29 33 40 47 52 44 30 30 37 36 38 42
10 15 18 20 23 26 28 30 32 34 38 38 37 42 39 36 33 34 42 49 44 28 24 27 36 39 46
19 21 23 24 25 27 29 34 37 44 50 52 51 52 44 38 36 37 36 43 45 31 24 29 38 42 48
24 26 28 31 33 34 37 41 42 50 55 59 59 45 44 46 44 41 43 49 45 29 22 29 49 53 53
30 32 34 37 40 42 44 45 44 49 55 59 50 56 56 54 53 54 47 51 50 30 27 37 50 51 56
37 39 41 44 47 51 52 51 50 53 54 53 57 58 55 52 64 57 47 47 47 36 29 30 36 45 51
40 43 46 50 52 55 55 55 55 56 55 56 62 65 56 54 60 65 54 50 53 45 34 43 38 45 55

GFSFLT2_700_rhum_057.txt.gz
RH
100 100 99 99 99 99 98 90 97 98 99 100 99 99 100 99 99 100 95 88 85 82 73 52 30 18 12
98 94 100 98 94 96 97 94 100 100 100 100 100 99 100 97 94 88 82 66 39 22 14 10 9 9 8
99 100 100 100 100 100 100 100 100 98 97 96 95 90 88 75 47 28 18 12 10 9 8 6 4 3 4
100 100 100 100 100 100 99 98 97 94 95 90 63 32 18 12 9 8 8 7 5 4 5 9 11 12 13
99 100 100 100 100 100 100 82 41 24 18 13 9 8 8 8 6 5 5 9 14 14 15 17 21 23 24
100 100 98 96 75 27 16 11 10 9 8 8 7 6 5 6 17 19 17 17 16 15 16 19 22 24 27
41 22 15 12 10 7 5 5 4 4 4 4 4 13 24 22 21 22 21 20 19 18 19 19 18 18 22
6 4 3 3 2 3 3 3 3 3 7 23 23 24 28 32 31 30 28 24 22 24 23 23 22 21 19
2 2 2 2 2 2 3 4 10 17 19 20 24 30 35 37 37 37 36 35 40 43 41 35 27 24 22
2 2 3 4 5 7 12 17 20 21 19 22 27 27 31 37 41 45 41 38 42 46 46 42 32 23 22
4 5 7 9 13 16 18 21 24 25 25 27 31 30 29 31 37 40 39 37 38 42 47 42 35 26 22
8 11 14 16 18 20 22 24 27 29 33 32 32 34 34 34 35 36 36 36 36 39 45 43 36 24 22
14 17 20 23 24 26 27 28 30 34 36 38 38 39 39 40 34 40 38 40 44 41 42 42 36 26 24
20 23 25 27 28 30 32 35 38 43 44 46 46 44 44 42 40 43 45 43 52 49 39 42 41 31 32
26 28 30 32 35 38 40 42 44 46 49 53 53 51 48 45 45 50 49 54 62 58 44 40 42 36 33
31 33 36 39 42 46 48 51 52 53 53 54 55 56 54 51 56 56 55 56 60 57 46 39 36 41 32
39 42 47 52 55 60 62 64 67 67 68 68 67 66 61 56 58 61 60 62 64 58 44 43 41 44 36

GFSFLT2_700_rhum_060.txt.gz
RH
86 80 95 98 99 99 98 99 90 92 99 100 100 100 100 99 99 99 98 99 99 98 94 94 89 82 75
100 96 98 74 90 98 90 100 100 100 96 98 99 100 98 94 90 93 90 90 88 84 83 64 40 22 14
86 100 89 100 92 94 98 98 99 98 100 97 94 97 95 93 89 90 84 71 47 28 18 12 9 8 8
99 100 100 98 98 99 98 100 99 97 98 96 96 91 80 63 41 24 16 11 9 9 9 7 5 5 6
94 99 100 100 99 99 100 99 99 74 37 22 15 12 10 10 9 9 8 8 6 5 6 12 15 16 16
100 100 97 87 62 27 16 12 10 7 6 7 6 6 6 6 5 4 6 15 18 17 17 16 15 15 15
27 15 12 9 7 6 4 3 3 3 3 4 3 3 4 9 18 20 20 20 20 19 18 18 18 17 17
2 2 2 2 2 2 2 2 2 2 3 5 10 17 20 20 23 25 26 26 26 24 25 27 27 27 26
2 2 2 2 2 3 3 4 5 10 15 21 20 22 25 28 30 31 32 31 31 31 30 30 32 33 30
2 2 2 3 4 6 7 10 14 16 18 21 22 25 31 34 34 34 34 34 38 39 36 34 33 33 32
2 4 6 7 8 11 14 16 18 21 24 25 28 28 28 31 35 40 41 46 45 41 38 36 34 32 30
5 8 9 11 13 15 18 20 22 25 26 26 26 29 31 34 37 42 46 43 38 42 41 41 41 38 37
9 12 13 15 18 20 22 24 27 30 32 33 35 36 36 36 36 40 42 41 44 43 43 46 49 46 40
15 16 17 21 24 26 28 31 34 39 40 40 42 42 41 41 40 40 45 40 45 47 46 47 51 53 45
19 21 24 27 30 34 35 38 40 45 50 52 51 51 50 48 46 48 50 49 52 56 52 49 52 57 47
26 27 30 33 36 40 44 47 50 56 59 62 61 62 62 60 59 58 57 58 60 60 59 57 53 56 44
37 40 42 48 55 62 65 65 67 70 75 78 78 76 68 63 68 71 65 72 66 63 63 62 53 45 40

GFSFLT2_700_rhum_063.txt.gz
RH
81 93 96 97 94 95 94 99 98 97 91 91 89 99 100 100 100 100 100 100 100 99 99 99 100 99 96
79 100 88 87 99 87 87 92 93 93 99 100 100 95 99 100 100 100 95 93 95 97 96 99 98 93 88
83 81 93 92 91 87 96 99 99 99 96 92 99 100 100 99 98 98 95 95 97 95 89 88 79 55 35
72 85 85 97 92 100 97 100 100 100 100 98 92 92 93 94 93 88 82 73 67 50 33 19 12 10 9
75 83 96 100 99 98 84 92 93 91 80 74 62 55 38 27 19 15 13 12 10 9 9 8 6 6 8
17 13 17 19 17 13 13 12 11 6 6 7 6 6 5 5 5 4 4 4 3 4 7 14 16 16 15
2 2 2 2 2 2 2 2 2 2 2 2 2 2 2 2 2 4 8 12 14 16 18 18 18 18 18
4 3 2 2 2 2 2 2 2 3 3 4 5 6 9 11 13 14 15 17 19 21 22 24 25 26 26
3 3 2 2 2 2 3 4 5 6 8 11 13 14 14 15 19 21 23 23 24 24 24 26 27 28 29
2 2 2 2 3 5 6 7 8 11 14 16 19 20 20 22 24 26 29 28 28 28 29 31 32 32 34
2 2 3 5 7 8 9 11 14 16 19 20 23 27 28 30 30 32 34 38 37 39 40 39 38 36 36
3 4 6 8 10 12 14 16 19 22 26 25 25 30 31 32 33 43 48 48 47 48 49 43 39 39 38
4 6 9 13 15 17 20 23 26 29 32 33 32 34 36 38 38 41 42 48 50 51 48 45 44 44 43
6 9 14 19 21 23 27 30 33 38 37 38 39 39 40 44 43 45 47 46 48 49 46 45 46 47 50
8 13 21 25 28 30 32 35 37 43 48 50 49 49 50 53 52 55 54 53 55 55 52 50 52 54 56
11 15 25 34 39 43 45 49 55 61 66 70 71 68 67 68 69 67 66 64 68 66 65 57 54 62 63
14 14 17 32 43 50 54 57 61 69 77 81 84 86 75 67 74 81 75 79 76 72 72 68 58 58 56

GFSFLT2_700_rhum_066.txt.gz
RH
47 56 66 63 62 77 85 85 93 98 97 98 98 98 98 99 98 99 100 100 98 100 98 100 100 99 99
48 61 66 70 68 75 74 78 89 100 93 96 98 98 99 100 100 100 100 100 100 100 100 100 100 100 100
49 58 60 57 64 70 70 72 88 87 96 94 99 99 98 100 100 100 100 100 99 95 96 99 97 94 96
55 59 62 54 58 57 62 70 68 61 83 96 100 99 99 98 96 97 93 94 94 89 92 83 74 57 39
6 3 3 4 5 6 7 9 9 12 23 44 68 74 79 81 67 54 39 27 18 14 11 10 9 9 8
4 4 4 4 3 3 2 2 2 3 3 4 4 4 4 3 3 3 4 3 3 3 3 3 4 6 10
12 10 7 4 3 3 2 2 2 2 2 2 2 2 2 3 3 2 2 2 3 6 10 13 14 16 16
14 7 4 3 3 2 2 2 2 3 4 4 4 4 5 5 6 7 9 10 12 14 15 18 20 22 23
13 8 5 4 3 2 3 4 5 6 6 7 8 8 10 11 11 12 13 14 16 18 21 22 23 23 24
10 6 4 3 3 4 5 6 8 9 9 10 12 14 15 16 17 17 19 21 22 23 23 24 26 26 29
7 4 3 3 4 6 8 10 11 12 13 15 17 19 21 22 24 24 24 25 26 28 30 31 32 33 33
6 4 4 5 6 8 11 14 15 17 18 20 22 24 25 26 26 35 33 33 35 39 39 39 38 38 36
6 6 6 7 8 12 16 19 22 25 26 29 31 32 32 33 34 39 39 48 52 52 51 48 46 45 44
7 8 9 10 13 17 24 28 31 34 34 37 38 39 40 44 44 48 53 49 54 56 55 54 53 54 51
10 11 12 13 14 18 25 34 41 47 54 58 58 61 62 62 59 66 70 67 68 68 66 60 60 61 60
18 22 23 22 20 18 22 28 38 48 53 59 64 69 77 78 77 74 76 78 81 77 75 67 63 71 69
28 25 23 26 30 32 33 35 40 46 50 56 64 72 75 78 79 82 84 93 91 87 86 80 68 72 72

GFSFLT2_700_rhum_069.txt.gz
RH
33 33 36 44 51 54 58 61 70 65 77 78 89 96 96 96 96 96 96 97 97 97 98 99 100 99 100
38 32 42 49 52 52 55 58 61 65 71 75 84 83 96 99 98 100 100 99 99 98 98 98 99 100 96
43 42 48 43 41 42 48 51 60 61 56 56 74 90 96 99 98 98 94 100 100 100 100 100 100 100 100
6 18 7 4 4 4 4 4 4 5 9 11 23 38 40 53 72 80 85 91 93 94 94 95 91 86 78
6 6 7 7 7 6 6 5 4 3 3 3 4 6 8 11 17 22 25 31 36 37 32 21 17 13 11
22 22 21 17 13 9 7 5 4 4 2 2 2 2 2 2 2 3 3 3 3 3 2 3 3 3 3
27 24 21 18 12 7 6 4 3 2 2 2 2 3 3 3 3 3 3 3 3 3 2 3 4 6 9
23 20 18 14 11 8 6 4 3 3 4 4 4 4 5 5 5 5 6 6 7 9 10 12 13 14 16
21 20 18 13 8 5 3 3 4 4 6 6 7 7 7 8 8 9 9 10 11 12 13 15 17 20 22
21 17 13 10 6 5 4 4 5 6 8 9 10 11 11 12 13 14 15 15 15 16 17 20 21 22 23
20 17 13 8 6 6 5 6 8 10 11 13 15 16 17 18 20 20 21 22 22 23 23 22 23 23 24
25 21 16 10 7 7 8 9 11 13 15 18 20 22 23 25 27 30 30 29 28 29 29 30 30 31 32
32 25 18 11 10 10 11 13 15 17 19 23 27 30 32 32 32 36 38 44 45 43 40 39 40 41 41
33 24 16 14 15 17 18 18 18 20 22 24 31 40 48 52 53 54 58 55 56 56 58 57 55 53 52
35 23 19 20 21 20 20 21 22 24 27 28 29 37 44 47 47 56 66 68 73 76 73 69 73 75 69
34 24 22 24 22 21 21 23 29 33 36 37 40 44 46 47 51 56 59 66 81 82 81 77 73 82 78
35 26 28 28 25 24 24 26 31 36 40 44 50 53 45 47 50 63 72 85 84 84 85 85 76 80 90

GFSFLT2_700_rhum_072.txt.gz
RH
37 35 32 34 41 45 49 48 47 50 56 56 75 72 76 92 100 98 97 97 97 96 97 97 97 97 94
38 44 40 41 43 43 44 47 42 53 58 57 56 67 74 82 94 91 88 89 95 96 98 95 95 95 92
8 8 30 32 7 4 4 4 4 4 6 11 18 12 32 71 77 86 95 100 100 99 100 100 100 99 96
5 5 5 4 5 6 6 6 6 5 5 4 4 4 5 8 18 34 67 84 92 94 96 96 96 97 98
20 21 21 21 21 19 16 12 10 8 6 5 4 3 2 3 4 8 11 14 23 30 31 33 42 49 48
28 28 27 26 25 22 18 14 9 5 5 4 3 2 2 2 2 2 2 2 3 3 3 4 4 4 4
29 28 26 22 20 19 16 13 11 9 6 4 3 3 3 3 3 3 3 4 4 4 4 3 3 3 3
28 25 24 23 21 17 13 10 7 5 4 4 4 4 4 4 5 5 5 5 6 6 6 6 6 7 7
25 24 23 20 17 15 12 10 8 6 5 5 5 6 6 7 7 7 7 8 8 9 11 11 12 12 13
27 25 23 23 22 20 17 12 10 8 8 7 7 8 9 10 10 11 12 12 13 13 14 14 16 18 21
34 33 32 31 27 22 18 14 12 10 9 10 10 11 12 14 16 16 17 17 18 19 19 19 20 20 23
48 44 42 38 33 27 21 16 13 13 13 13 14 16 17 21 23 24 25 25 24 25 27 28 27 26 26
47 50 48 45 35 26 22 19 17 16 16 16 16 17 20 24 29 32 32 35 37 38 35 33 34 36 37
59 58 53 42 34 26 24 21 19 18 18 17 19 21 25 28 31 36 44 46 54 58 58 58 56 53 49
66 65 58 46 35 28 25 22 21 20 20 20 20 24 30 32 33 39 41 44 50 50 52 60 70 75 73
69 68 60 50 36 29 27 25 24 24 24 25 27 30 35 36 40 44 49 57 60 56 60 59 61 73 76
72 70 63 44 32 30 31 29 28 28 29 31 34 37 37 37 38 48 66 64 53 56 61 60 55 63 72

GFSFLT2_700_rhum_075.txt.gz
RH
42 39 38 38 30 32 42 45 42 35 30 39 48 51 59 61 73 93 98 99 98 99 98 98 99 97 98
39 13 22 42 42 32 9 5 4 4 4 4 5 12 19 25 55 73 77 98 100 99 98 98 100 98 95
32 19 4 3 8 10 4 4 4 5 5 6 5 6 5 5 6 23 55 80 87 88 88 93 98 95 97
15 16 16 17 17 16 16 17 17 16 14 11 9 7 6 5 4 3 6 23 38 76 98 100 100 100 100
23 24 25 26 26 25 25 24 23 20 15 10 7 6 6 5 3 2 2 4 8 15 24 37 54 56 66
28 28 28 28 26 25 23 21 20 18 14 14 12 10 8 6 4 3 3 2 2 2 2 3 3 5 7
31 30 28 27 25 24 23 22 19 16 13 11 8 6 5 4 4 4 4 4 4 4 4 4 4 4 3
30 28 26 25 25 23 20 18 17 15 14 12 10 9 7 6 5 5 5 5 5 6 6 6 6 6 6
34 30 28 26 25 24 25 24 23 21 18 18 16 13 10 7 7 7 7 7 7 8 8 8 9 9 10
44 39 35 33 32 32 32 31 29 29 26 25 18 15 13 11 11 10 10 10 10 10 11 12 12 13 14
50 45 45 45 43 42 41 40 38 35 30 26 20 16 14 13 14 14 14 15 15 15 16 16 17 18 19
56 49 44 45 48 49 48 44 40 38 34 26 20 17 15 15 15 17 18 19 20 21 22 24 25 26 26
60 59 59 58 57 55 50 49 44 37 29 24 20 18 17 16 17 18 18 24 25 28 33 35 35 33 34
64 63 63 63 62 61 56 50 42 34 28 24 22 20 19 19 19 21 23 22 27 31 34 40 44 48 51
68 66 66 65 64 61 57 48 39 32 30 28 26 24 22 22 24 26 27 30 37 39 37 36 42 47 48
72 70 68 67 66 64 56 46 37 34 33 31 28 25 24 27 29 31 35 39 43 42 41 38 37 49 54
78 74 71 70 69 68 62 49 38 37 36 34 29 26 26 28 30 32 41 50 47 41 41 42 35 44 51

GFSFLT2_700_rhum_078.txt.gz
RH
44 42 39 29 36 35 30 37 36 30 16 5 5 5 8 11 10 7 37 50 73 89 99 100 98 98 98
40 42 22 8 6 28 36 14 5 4 4 4 5 5 6 6 6 8 10 59 97 97 98 97 93 100 98
12 15 12 8 10 10 8 9 10 12 14 16 16 15 12 9 7 6 5 8 37 75 95 100 100 100 100
18 19 20 21 22 23 23 23 24 24 23 22 21 18 13 9 7 6 5 4 4 11 24 73 92 93 94
25 25 27 26 27 27 26 25 24 23 21 20 18 17 16 14 11 8 6 4 3 3 3 8 18 15 23
28 30 30 29 28 26 25 24 24 22 20 20 17 16 12 9 7 6 4 4 4 3 3 3 3 4 6
34 32 30 28 26 25 25 24 23 21 20 19 17 16 14 13 12 9 7 6 5 5 5 5 4 4 4
40 40 36 32 28 27 26 25 25 25 25 25 24 24 22 19 17 14 10 8 7 6 6 6 6 6 6
45 47 46 43 36 33 32 32 32 33 33 34 32 31 30 28 24 20 16 13 11 10 9 9 9 10 10
51 52 50 48 46 44 42 42 42 43 40 40 40 38 37 33 28 23 18 15 13 12 12 12 13 13 14
55 55 55 53 49 46 45 46 47 49 49 47 45 42 36 29 24 23 19 17 16 14 13 14 16 18 20
60 60 58 58 58 57 57 57 56 55 54 52 45 40 36 31 26 24 21 19 17 15 14 15 20 24 27
63 66 64 62 61 61 61 60 59 57 55 52 46 40 37 36 33 27 22 20 18 16 16 20 24 26 32
66 71 70 66 64 63 61 60 60 59 55 52 46 42 38 37 34 26 22 21 21 20 20 26 29 30 30
74 76 72 69 68 66 64 63 63 64 61 55 48 43 40 38 31 27 26 26 24 25 26 30 32 34 39
79 82 79 76 73 70 69 68 68 69 66 58 47 43 42 37 35 30 28 27 28 30 31 30 30 37 42
86 89 86 83 79 77 76 74 74 74 68 58 50 48 50 42 33 30 30 31 31 35 36 36 31 35 42

GFSFLT2_700_rhum_081.txt.gz
RH
38 42 44 42 24 19 35 37 38 31 15 10 5 5 5 5 6 6 7 6 28 65 89 100 98 100 99
47 38 41 39 28 8 4 6 13 10 4 5 6 9 11 12 9 7 6 7 7 11 66 89 88 80 96
14 8 10 11 12 17 18 20 20 21 22 22 22 22 21 18 13 10 8 7 6 13 23 45 97 100 99
14 17 20 22 24 25 25 25 25 25 24 23 22 21 19 18 16 14 11 8 6 4 6 23 55 82 95
22 25 28 28 28 29 28 26 26 25 23 22 21 20 18 17 16 14 11 9 7 5 4 3 4 10 29
28 30 32 32 31 29 27 26 25 24 22 22 20 18 17 16 15 13 12 10 9 7 6 4 4 4 4
36 36 36 36 34 30 28 26 26 24 23 23 24 24 23 24 24 23 22 20 16 13 11 8 7 6 5
40 41 42 44 44 40 34 30 28 29 30 30 31 32 32 32 33 35 33 30 26 22 18 14 11 9 7
37 43 47 49 49 48 45 42 39 39 38 39 39 39 40 41 40 40 38 35 33 29 23 19 16 12 11
43 50 52 51 52 51 49 46 46 46 44 45 46 46 45 46 44 42 38 36 36 31 27 24 20 16 14
48 55 58 56 56 56 56 55 55 54 54 54 54 54 52 49 44 42 40 38 36 35 31 27 22 18 14
47 52 61 64 62 60 59 59 59 59 59 57 56 53 52 48 45 42 43 41 40 36 32 28 21 17 16
42 50 64 68 70 67 64 63 61 59 58 56 55 54 54 52 49 46 43 42 40 36 30 23 20 19 19
39 49 68 75 74 70 67 67 65 62 61 59 57 59 62 58 53 50 50 44 39 34 28 25 23 22 24
42 93 84 79 82 80 76 72 70 68 66 64 62 64 64 60 56 52 49 44 38 31 27 24 25 26 27
96 77 82 84 87 87 84 80 76 74 72 67 66 71 68 59 56 54 51 43 35 31 28 25 26 30 32
96 95 96 93 92 93 91 87 83 80 77 72 72 76 73 68 64 59 51 42 36 30 29 29 29 35 38

GFSFLT2_700_rhum_084.txt.gz
RH
31 29 34 42 46 38 8 7 25 33 24 7 5 4 4 5 5 5 6 7 7 10 59 92 91 100 96
32 36 46 40 43 29 24 5 8 8 8 8 11 13 16 18 18 17 15 11 7 8 23 64 93 99 100
42 48 26 13 14 13 15 20 22 23 23 24 23 23 23 22 21 19 15 12 10 9 14 28 54 100 100
50 15 11 16 20 22 25 27 27 26 25 24 23 22 21 20 19 18 16 14 11 8 7 7 27 30 35
12 18 22 24 26 27 29 30 29 27 25 24 22 21 20 19 17 16 14 12 10 8 6 5 4 5 8
26 30 32 32 33 33 31 29 27 25 24 23 23 21 20 20 20 19 18 17 16 14 12 11 9 7 5
32 35 38 38 39 39 38 34 30 27 26 25 25 26 26 27 27 28 28 30 30 30 28 24 17 12 10
39 41 42 42 44 46 46 44 38 33 31 31 31 32 33 34 35 35 37 38 38 37 34 32 30 28 25
39 37 41 47 50 50 50 49 47 45 43 41 41 41 41 42 43 44 43 43 42 40 37 35 34 32 30
36 39 47 54 55 54 53 52 51 48 47 46 46 46 47 48 48 48 48 46 42 41 39 37 35 33 32
37 40 47 53 60 62 60 58 56 55 56 55 55 55 55 52 48 46 43 43 41 40 40 39 39 38 37
38 39 43 49 59 67 68 66 63 60 60 59 57 54 52 49 46 44 40 41 44 44 44 44 44 41 36
36 37 37 41 56 78 82 73 67 64 62 60 58 56 56 53 51 50 45 44 49 50 48 46 45 41 34
35 35 37 38 67 96 95 84 76 71 69 66 63 62 61 56 55 58 56 56 54 52 48 44 40 35 31
66 90 82 72 95 96 91 86 84 81 76 74 70 68 66 59 61 63 60 57 53 52 50 47 39 35 32
94 95 94 97 95 87 88 90 90 87 85 82 78 75 72 66 59 58 55 56 58 58 56 49 38 32 29
85 95 97 96 96 96 96 95 96 94 92 89 86 82 77 69 70 67 67 62 60 61 58 50 42 33 30

GFSFLT2_700_rhum_087.txt.gz
RH
29 30 36 35 34 45 50 28 6 10 26 28 11 6 5 4 5 5 5 6 7 7 8 41 82 93 98
37 41 38 33 45 48 45 24 14 8 12 10 9 9 10 12 15 17 18 16 12 7 9 32 67 82 100
50 44 38 51 42 28 28 14 15 19 22 24 23 22 22 22 22 21 20 19 16 12 9 30 95 94 54
42 45 56 43 9 15 20 24 26 26 26 26 25 24 23 22 21 20 18 17 16 13 8 11 53 99 99
59 58 17 13 22 28 30 30 30 30 29 27 25 24 22 21 20 19 18 16 15 13 12 10 10 12 17
17 15 25 30 31 32 34 33 32 30 27 25 24 23 22 21 20 19 18 17 15 13 11 10 9 7 5
30 32 34 37 38 38 40 41 41 38 33 29 26 25 24 25 25 26 26 26 27 27 27 26 24 22 19
35 38 40 44 41 41 45 47 47 46 41 35 32 30 31 31 33 34 35 35 36 37 37 36 35 33 30
42 43 39 38 42 49 52 52 51 50 48 46 43 41 40 40 41 42 43 44 44 44 43 42 40 37 35
41 38 37 38 48 56 58 57 56 54 51 49 48 47 46 46 47 48 49 49 49 47 44 41 39 36 32
38 38 37 40 46 51 58 64 64 60 58 57 56 56 55 55 54 52 48 44 41 40 38 36 35 33 34
38 38 37 37 39 43 51 66 71 70 68 64 62 60 58 55 51 49 49 47 42 41 39 41 41 39 38
37 37 36 36 36 37 40 57 92 96 95 91 66 64 61 58 56 56 55 50 42 41 44 46 43 38 36
34 34 34 34 35 48 91 94 96 96 95 86 76 72 69 65 64 64 62 55 46 42 50 49 43 41 40
30 31 34 61 88 95 96 92 96 94 91 88 85 82 79 75 72 70 68 60 48 50 51 50 50 49 48
55 85 87 92 93 94 96 93 98 95 90 91 92 90 87 84 82 79 74 65 52 48 48 51 57 54 52
53 36 33 56 80 97 98 94 96 96 94 94 94 92 90 91 90 86 81 70 60 55 53 55 60 62 57

GFSFLT2_700_rhum_090.txt.gz
RH
47 46 39 33 37 43 39 41 50 19 11 31 36 29 21 18 5 5 5 5 6 6 6 9 24 58 85
49 44 39 42 44 37 40 50 47 16 5 8 10 9 8 6 6 6 9 14 14 10 7 9 23 75 97
49 48 49 52 42 43 53 48 43 19 15 21 22 23 22 22 21 21 21 21 20 17 14 9 30 75 94
52 55 56 47 50 60 13 13 17 22 25 27 27 27 25 24 23 22 21 20 19 17 12 12 36 29 58
55 51 57 68 49 12 18 26 29 30 30 30 29 27 25 24 23 22 20 19 18 17 16 15 13 21 51
73 71 37 15 22 30 31 33 34 33 32 29 27 26 24 23 22 20 18 17 16 14 13 10 10 10 21
21 22 32 35 33 36 38 40 42 41 41 38 32 28 26 24 23 22 22 22 21 20 20 18 16 12 11
39 37 38 40 44 44 44 44 48 49 48 46 40 32 28 27 28 29 30 30 30 30 31 32 32 32 31
62 52 46 45 41 40 48 53 54 54 52 51 48 45 40 37 37 38 38 38 39 40 41 41 41 40 39
76 51 60 47 40 45 48 56 61 62 60 56 53 51 48 48 46 46 46 47 47 48 48 48 47 45 42
64 71 45 40 52 44 41 47 51 60 66 66 63 61 60 58 57 56 56 55 53 49 44 42 39 38 37
42 42 40 39 39 71 44 38 40 52 75 83 79 76 70 64 62 59 56 53 51 51 49 42 36 34 35
45 69 41 36 36 36 36 36 37 55 91 96 97 97 96 87 69 62 60 59 58 58 57 50 40 38 41
37 36 35 34 33 33 36 64 89 91 93 91 97 97 94 84 76 72 69 67 66 66 65 57 43 38 40
31 30 30 30 35 70 86 91 92 92 89 93 95 93 91 88 86 84 80 76 75 74 72 66 49 41 40
26 26 28 60 83 67 51 72 93 94 93 93 97 96 94 94 91 91 88 86 84 81 78 71 58 50 46
23 25 29 30 30 39 52 76 87 96 95 94 95 97 95 94 95 95 95 95 92 88 86 78 65 64 65

GFSFLT2_700_rhum_096.txt.gz
RH
37 40 42 45 50 53 53 52 46 39 43 49 48 50 41 36 36 40 40 34 26 19 15 33 38 30 29
42 42 42 46 51 56 56 53 50 49 51 45 58 16 18 35 26 19 24 7 5 5 6 7 17 37 38
44 43 43 48 53 55 54 52 54 56 52 61 50 10 11 14 13 13 11 11 8 9 11 11 8 10 20
45 44 47 53 56 56 56 55 50 56 51 57 34 16 21 23 26 25 24 24 23 22 21 19 16 17 19
46 48 54 59 58 54 54 63 64 21 16 22 28 31 30 29 29 28 26 24 23 21 20 20 17 32 37
52 55 60 65 69 68 39 18 25 31 33 33 33 33 31 30 28 26 25 23 22 21 18 16 18 24 98
55 52 63 52 25 32 49 56 51 46 44 44 43 41 36 31 28 24 23 22 19 18 16 15 14 15 21
26 25 28 32 43 51 48 54 52 52 59 60 55 54 51 46 40 31 25 22 20 17 15 13 11 9 10
27 42 54 56 56 50 48 61 64 66 74 82 78 70 56 50 46 37 29 26 25 24 23 22 21 19 18
40 49 55 53 53 59 56 49 68 76 59 70 82 93 79 61 52 49 45 38 35 34 34 34 33 33 33
49 60 61 66 71 66 46 58 68 71 63 80 91 81 88 83 79 62 54 49 47 45 44 44 44 44 44
63 63 46 52 60 51 44 42 62 76 76 44 42 53 64 59 70 85 74 62 58 57 55 54 54 53 51
58 46 43 43 44 74 74 50 41 38 36 40 52 54 58 68 82 91 93 96 92 72 60 57 54 52 51
60 55 42 43 44 43 41 38 35 33 53 74 60 61 83 88 89 92 95 99 98 97 96 94 90 81 70
55 39 38 40 38 36 34 32 31 43 81 52 57 76 80 84 92 92 94 98 96 94 90 89 88 88 92
34 30 32 31 30 28 28 28 29 42 49 36 56 82 94 93 91 91 92 94 94 93 94 94 94 88 85
29 23 24 23 23 23 24 25 27 30 34 54 92 92 90 91 94 94 93 91 91 90 89 88 90 94 89

GFSFLT2_700_rhum_099.txt.gz
RH
36 35 38 41 41 42 43 46 48 51 50 45 43 53 51 55 41 39 40 43 42 36 34 35 37 34 31
35 36 40 43 43 44 45 47 50 50 48 44 52 47 53 34 24 43 39 41 34 14 12 10 26 41 32
31 32 35 39 43 44 47 50 50 52 51 54 51 61 55 8 10 13 12 9 8 6 7 7 8 25 38
35 37 42 45 45 48 53 53 53 53 50 53 53 56 28 14 21 24 24 24 22 20 19 17 15 9 10
39 46 48 47 51 55 56 53 52 59 57 19 19 26 30 33 30 29 31 27 26 24 23 33 32 21 26
50 52 53 53 56 60 64 62 34 22 22 31 42 52 47 50 36 31 29 27 25 22 20 37 26 91 59
54 57 54 47 54 54 29 35 46 48 46 48 49 48 44 40 34 33 26 23 23 22 20 18 17 34 34
62 58 38 27 25 33 50 50 52 51 49 53 57 59 58 58 55 48 34 26 23 20 18 15 13 14 15
64 48 28 39 48 48 48 49 57 64 65 69 72 78 79 72 56 50 41 31 27 22 20 17 14 12 10
55 30 36 52 54 56 52 49 52 60 64 68 66 70 84 92 90 67 52 47 37 29 27 25 24 23 21
37 31 40 54 61 58 67 56 50 66 64 70 71 80 78 73 86 74 74 68 52 46 41 37 35 34 34
32 39 52 60 58 64 71 64 58 49 66 71 66 42 38 42 48 46 50 68 76 61 53 49 46 46 45
38 53 63 62 49 45 47 46 56 53 43 41 36 36 53 63 64 67 70 77 88 94 86 64 59 58 56
44 64 65 50 44 43 44 47 58 48 39 35 36 70 56 69 74 75 80 84 91 92 92 95 91 70 59
35 60 56 59 52 42 43 42 40 36 34 32 44 71 41 54 70 81 80 84 87 93 95 94 92 94 96
34 41 50 55 42 38 38 36 33 30 30 29 33 50 38 57 78 83 85 83 85 89 91 94 96 93 91
31 35 45 86 54 31 28 27 26 25 26 26 28 31 32 61 84 89 87 85 82 82 84 86 88 91 91

GFSFLT2_700_rhum_102.txt.gz
RH
42 42 41 37 36 35 38 39 41 42 43 44 49 46 44 43 42 48 42 40 40 42 41 38 37 37 35
33 31 31 31 31 34 36 38 40 42 42 46 49 47 48 43 53 26 36 42 42 45 33 26 30 30 39
31 32 32 34 37 35 36 38 42 44 48 50 53 51 47 58 28 9 14 11 11 11 7 7 6 15 42
39 39 40 39 35 36 41 42 43 47 48 48 48 51 55 34 16 18 23 25 25 22 19 10 10 8 28
46 43 40 36 38 47 47 48 50 52 54 56 34 20 27 34 39 33 33 31 29 33 25 25 23 20 14
46 38 35 44 52 50 50 53 60 50 30 20 27 38 44 48 49 47 44 52 40 48 24 50 100 36 98
40 45 47 51 54 49 45 44 32 32 38 40 46 47 49 46 40 40 36 44 25 24 22 22 29 99 86
46 52 56 56 51 35 27 36 47 51 51 50 51 57 60 61 60 56 47 40 31 22 18 18 21 23 22
57 59 60 57 38 30 32 42 48 53 58 66 69 72 74 77 77 69 52 48 39 32 21 17 14 13 16
62 68 64 49 35 50 53 55 53 51 62 65 64 67 71 76 89 86 68 55 52 38 40 55 27 29 14
66 71 63 38 37 53 56 57 63 54 64 65 67 73 73 79 69 88 83 71 69 60 49 39 30 27 24
74 76 54 32 38 56 60 67 70 50 54 57 66 63 50 37 38 40 40 40 43 49 70 56 47 42 38
85 75 37 37 52 60 60 61 65 55 47 45 45 45 36 37 60 63 67 67 70 71 76 77 64 58 52
90 71 33 43 58 64 56 47 45 48 73 71 51 38 34 54 56 50 65 71 74 80 85 94 95 92 77
97 66 34 50 69 60 47 44 44 45 45 42 38 35 33 46 56 39 50 68 79 80 84 90 95 95 96
98 83 34 55 67 57 54 47 43 43 41 37 33 32 30 32 38 33 46 74 80 81 82 86 88 90 91
96 93 45 35 47 51 49 56 41 37 33 30 28 27 26 27 28 31 66 82 83 84 83 84 85 85 87

GFSFLT2_700_rhum_105.txt.gz
RH
61 51 44 40 37 34 34 33 32 33 31 30 38 42 43 44 44 40 40 43 42 36 38 40 38 36 38
53 46 40 34 33 33 34 36 36 34 36 40 41 41 44 46 46 42 48 29 38 39 41 44 36 36 38
48 39 34 35 38 39 39 39 39 42 43 43 45 45 44 46 49 51 20 13 15 12 21 13 11 13 22
43 38 40 42 43 44 42 42 46 45 47 50 47 45 45 48 45 18 13 20 23 22 19 12 9 9 16
42 43 49 49 45 43 45 47 48 49 52 54 52 49 28 23 32 37 32 31 33 30 39 31 25 20 14
46 56 53 44 46 44 50 51 50 54 55 42 26 23 30 42 45 47 49 46 47 49 49 53 61 53 32
59 57 42 39 40 53 56 51 47 42 31 31 32 37 40 44 48 40 45 38 43 46 27 38 85 99 88
60 55 40 43 50 58 50 33 30 36 46 48 49 50 52 56 56 55 50 38 36 28 22 22 23 69 76
63 58 44 52 62 61 36 30 38 48 51 56 60 64 67 68 72 73 71 62 51 45 26 20 17 19 29
64 61 51 58 68 55 34 38 46 51 52 57 68 66 65 70 69 75 83 69 55 48 39 65 39 18 13
66 64 53 70 70 50 41 54 56 54 54 61 66 64 67 70 76 80 92 92 79 67 56 55 39 35 29
73 68 60 74 68 43 37 54 56 61 61 64 65 62 71 56 39 39 42 44 43 40 43 55 56 48 37
84 72 70 73 75 40 36 48 60 70 65 51 54 49 47 45 35 51 59 59 63 65 64 63 68 63 48
97 91 73 81 68 37 42 60 65 67 70 58 50 62 56 44 35 53 54 43 48 64 72 75 79 86 68
97 88 84 90 67 38 45 58 60 53 51 50 63 62 46 38 34 39 57 46 35 55 75 78 82 90 95
97 79 86 93 60 41 54 66 55 47 47 48 47 44 40 35 33 31 33 35 30 62 81 84 82 86 92
88 84 98 97 74 40 56 70 56 50 47 47 44 41 35 32 30 29 29 27 32 74 84 86 84 83 85

GFSFLT2_700_rhum_108.txt.gz
RH
89 85 71 58 51 45 42 34 32 32 33 34 32 32 35 36 38 40 40 40 38 40 39 36 39 37 38
90 80 66 54 46 40 35 34 37 37 38 35 32 38 39 40 40 41 41 44 40 28 36 38 39 41 38
94 88 72 53 44 38 38 41 40 40 37 33 40 42 42 42 41 43 46 38 15 16 12 21 26 16 24
98 89 81 52 43 43 46 46 45 42 38 44 45 45 46 45 45 44 32 15 18 20 19 18 10 10 9
96 90 84 55 44 48 52 46 41 40 48 48 45 49 52 46 26 28 28 30 29 30 33 47 30 28 22
98 94 87 56 47 54 47 36 42 49 49 47 49 44 34 25 33 40 44 48 47 42 48 47 50 46 42
97 92 88 55 52 52 38 34 45 52 48 46 35 29 27 30 36 42 44 44 48 43 46 44 44 54 54
99 96 79 56 60 52 39 44 53 50 37 34 37 44 47 49 51 54 53 49 40 35 36 26 36 60 74
97 96 67 62 64 54 42 57 57 46 33 42 49 51 54 58 63 68 70 68 66 52 39 24 20 23 26
100 95 68 66 64 56 49 63 53 39 38 46 51 56 65 68 66 68 70 74 75 64 45 28 22 17 16
98 95 73 70 68 59 56 68 47 37 44 50 53 62 64 63 65 69 82 84 86 77 60 49 37 58 42
97 96 80 76 72 62 66 66 41 49 56 54 55 64 63 71 70 50 48 62 67 60 55 54 63 63 52
100 98 95 89 79 66 71 61 38 54 57 60 61 65 62 56 54 40 37 54 59 60 62 60 47 46 60
98 97 95 91 91 95 90 49 36 50 58 68 68 56 57 49 48 46 37 54 51 40 38 57 66 68 68
97 97 97 96 97 96 94 42 38 45 59 69 74 63 52 68 62 46 36 36 46 48 34 41 63 72 76
97 97 97 97 97 95 63 39 43 56 64 64 64 57 54 75 60 41 37 34 32 33 31 36 71 75 78
96 97 96 97 94 92 57 40 45 52 57 63 52 51 55 62 58 49 36 32 30 29 26 46 78 80 81

GFSFLT2_700_rhum_111.txt.gz
RH
100 97 94 91 82 66 54 50 45 38 32 31 34 34 34 28 34 35 36 39 40 38 37 36 35 33 33
100 100 100 90 82 70 51 44 39 35 33 35 38 37 33 32 37 38 39 40 40 40 38 31 29 31 35
100 100 97 95 84 76 59 46 39 36 37 39 40 38 32 35 37 42 41 42 41 35 21 17 15 25 24
100 98 99 100 97 82 71 48 42 42 44 43 39 34 33 37 42 45 44 40 32 20 14 18 16 13 10
99 100 98 98 99 96 77 50 46 50 46 38 34 37 41 40 46 45 30 32 30 25 27 28 41 36 30
98 98 100 98 99 96 75 52 53 52 42 35 39 46 44 45 41 31 34 41 44 46 41 41 46 45 45
98 99 92 94 99 91 84 55 51 50 37 40 50 48 45 35 28 29 36 43 43 46 49 48 46 48 44
99 98 98 97 94 96 75 58 56 50 43 50 50 42 33 34 38 44 47 51 51 48 38 39 37 31 35
83 86 100 96 99 99 75 58 61 51 53 54 42 36 40 44 47 52 57 61 62 63 58 40 33 25 28
100 98 100 98 99 98 74 64 66 55 57 51 38 40 46 50 54 62 65 65 66 70 69 57 44 24 19
84 92 88 98 91 95 79 72 69 58 61 45 37 44 50 54 62 62 64 68 72 77 74 62 54 39 46
84 89 97 98 97 92 88 80 72 63 63 46 37 48 52 59 62 64 67 62 82 93 88 78 70 61 46
96 95 96 97 97 95 93 84 76 69 62 42 45 54 55 64 64 68 50 38 42 53 58 57 50 48 65
97 97 97 97 97 98 97 96 84 83 63 41 56 56 59 66 63 56 50 38 48 55 43 37 44 62 62
96 97 97 97 96 97 97 97 97 95 85 46 57 59 64 67 64 53 49 46 38 44 49 46 33 41 62
99 97 95 96 97 97 97 97 97 96 96 52 55 64 70 63 56 55 63 50 39 36 34 31 32 34 64
96 96 97 97 96 96 96 97 97 97 84 41 51 66 76 69 57 61 80 51 40 36 32 29 28 35 67

GFSFLT2_700_rhum_114.txt.gz
RH
84 98 100 100 100 99 99 98 76 53 46 42 36 32 31 32 32 32 26 30 33 36 36 36 36 36 33
87 98 100 100 100 99 99 97 81 60 47 40 37 36 37 38 36 33 29 33 37 36 37 38 37 29 26
98 98 99 99 99 99 100 99 89 73 50 43 40 40 42 41 38 33 33 34 39 41 39 35 25 20 14
100 100 99 98 99 98 99 99 99 95 62 45 47 49 44 40 37 37 37 40 41 38 37 29 19 19 18
95 98 97 99 100 100 98 99 99 95 87 48 51 47 39 38 43 46 43 46 36 36 34 27 28 38 37
100 89 98 98 97 99 100 99 99 96 60 51 50 45 38 44 48 47 46 35 34 40 41 42 40 41 40
98 96 98 98 99 90 99 99 94 93 76 50 53 44 42 50 50 44 33 30 35 42 42 44 47 49 48
100 98 94 98 98 99 98 99 98 92 74 57 55 50 48 52 46 31 28 33 43 48 49 44 42 46 37
98 98 99 90 98 99 97 98 92 86 68 62 58 50 51 44 33 36 44 46 52 56 59 56 43 45 43
96 84 98 88 100 92 98 95 91 91 72 63 61 55 49 37 41 48 48 53 59 61 63 65 62 53 48
90 93 98 94 98 98 98 98 100 93 80 71 64 56 42 40 48 52 55 64 63 65 70 71 66 58 44
100 100 98 94 98 98 98 97 98 92 86 75 69 56 36 44 54 58 62 61 66 77 82 81 74 64 58
100 97 100 100 95 97 96 100 98 95 94 82 73 52 35 44 56 62 62 67 56 67 80 73 71 71 69
98 93 96 96 96 97 96 98 97 97 99 97 80 52 36 47 57 66 67 66 39 42 57 53 50 57 54
96 97 100 98 99 100 98 97 97 98 98 97 84 42 46 60 71 70 66 58 47 43 55 52 49 38 36
96 98 98 97 95 96 96 98 96 97 97 96 94 92 94 89 83 76 73 58 48 47 38 37 35 31 32
95 97 97 95 95 96 96 96 95 97 97 96 96 95 75 88 93 78 83 55 51 53 40 35 31 29 30

GFSFLT2_700_rhum_117.txt.gz
RH
98 100 99 99 98 98 100 96 98 99 98 88 62 51 44 38 33 34 35 33 33 27 26 30 34 34 33
83 88 100 98 88 98 100 99 99 100 97 90 67 52 44 39 38 36 37 38 34 30 33 36 37 36 35
81 81 87 92 98 99 99 100 100 99 100 97 92 62 45 40 41 43 42 40 38 38 37 42 38 36 33
48 58 84 92 96 95 98 100 99 99 100 99 97 95 67 50 38 42 38 36 38 41 44 39 36 33 25
35 38 56 80 99 98 99 99 99 100 100 99 98 96 78 52 44 41 38 43 46 44 40 35 34 28 28
35 48 54 72 100 94 94 99 74 100 89 100 99 99 65 51 48 39 38 45 51 42 34 40 41 39 37
42 51 97 99 97 70 73 97 98 93 100 100 96 86 57 54 52 43 49 50 47 32 36 40 42 44 45
24 34 72 89 84 100 99 100 98 98 98 95 87 86 78 60 49 45 53 46 30 31 35 44 46 42 45
39 89 70 87 96 78 89 99 98 99 98 99 99 86 71 59 51 50 50 31 29 38 47 50 51 46 46
49 96 100 91 100 92 99 98 97 98 98 98 98 86 69 61 53 50 35 35 47 50 54 59 59 56 46
70 83 100 93 96 99 95 100 96 99 99 99 97 91 74 64 53 39 36 48 54 58 63 61 60 62 57
64 93 96 92 95 96 97 97 98 97 97 98 98 92 79 63 44 38 46 55 64 67 64 65 67 66 61
67 90 87 96 98 97 96 98 98 97 96 96 96 97 90 66 39 44 59 67 68 65 71 80 78 74 65
81 90 97 90 94 97 96 96 99 98 96 96 97 97 94 61 37 51 69 70 67 66 67 78 73 73 70
97 96 98 97 97 97 96 97 97 98 97 97 96 98 97 67 38 55 74 72 72 51 46 55 48 44 53
92 94 97 95 95 96 100 99 98 96 96 95 96 96 96 84 41 55 75 82 94 51 50 55 51 50 38
96 91 90 99 92 96 97 100 97 98 99 98 96 96 96 95 65 59 93 96 95 60 49 46 44 35 30

GFSFLT2_700_rhum_120.txt.gz
RH
93 88 84 83 82 81 95 100 98 99 100 99 100 100 99 99 75 51 39 35 32 33 31 34 31 28 30
78 76 76 79 80 80 84 84 91 100 100 100 100 99 100 100 91 66 58 36 34 36 41 34 31 32 34
32 34 36 38 42 57 89 96 99 98 99 98 100 100 100 100 97 96 54 43 33 36 39 36 29 31 37
23 24 24 28 35 40 80 98 99 94 100 91 98 99 100 100 100 99 75 41 40 44 41 38 39 39 38
10 10 10 11 16 27 51 65 85 82 91 99 99 99 98 99 99 99 72 52 48 46 41 43 44 41 34
8 9 11 12 13 18 30 100 69 63 100 98 100 98 98 99 100 98 98 65 52 43 50 46 44 35 37
6 9 10 13 14 15 29 36 96 84 100 99 100 99 84 99 100 100 97 72 53 45 53 50 36 38 41
5 6 11 15 35 51 37 63 97 94 93 100 98 98 80 99 99 99 74 60 52 49 55 37 36 38 42
5 6 8 13 36 55 99 100 99 98 100 97 97 98 98 99 99 94 76 62 54 57 38 34 37 42 47
7 10 15 16 18 62 96 95 99 98 96 99 98 99 99 98 98 98 87 64 58 48 30 33 44 50 50
13 14 18 26 59 86 80 99 95 89 99 98 95 97 97 96 97 98 81 63 55 31 36 48 53 58 58
24 25 30 36 93 99 93 97 98 96 98 96 99 97 96 96 97 96 76 61 35 39 52 60 62 61 61
35 46 65 68 70 98 94 97 96 97 97 97 97 97 98 97 97 93 68 42 38 53 63 69 64 65 66
49 64 84 84 86 89 96 78 93 97 100 96 96 97 96 98 97 87 50 39 52 69 72 67 71 76 75
71 81 80 98 95 98 95 94 93 99 98 96 96 96 96 96 97 94 42 50 71 77 69 73 88 86 80
83 88 84 81 89 96 98 96 96 96 95 95 96 96 96 96 95 52 55 68 86 84 80 63 62 56 59
86 92 85 88 91 85 92 93 95 95 96 96 96 96 96 96 95 89 61 93 96 94 92 71 54 50 45

GFSFLT2_700_rhum_123.txt.gz
RH
99 100 92 85 83 82 83 83 85 86 89 97 100 99 92 100 99 97 100 99 96 77 53 43 35 29 27
94 85 71 51 36 31 31 31 34 42 64 83 100 99 92 100 100 100 100 99 99 98 67 52 37 34 32
36 29 27 27 25 24 23 23 25 30 35 36 93 86 90 100 99 100 100 97 99 100 96 73 40 35 40
14 9 8 8 9 9 9 9 10 11 13 36 51 56 100 80 100 98 99 100 100 100 100 65 49 43 42
6 6 5 5 4 4 4 5 6 8 10 13 41 57 100 90 100 99 99 99 99 99 100 89 55 50 41
3 2 2 2 3 3 3 3 4 5 9 12 35 81 100 100 100 100 99 99 100 98 100 96 87 55 46
2 2 2 3 3 3 4 5 5 9 33 16 37 50 88 98 97 98 99 98 98 98 98 97 80 45 50
2 2 3 3 4 4 5 7 10 12 58 76 52 95 98 96 98 98 98 98 99 99 98 97 88 53 51
2 2 3 3 5 6 9 12 15 24 49 70 80 91 84 97 97 97 98 98 100 98 97 84 62 59 41
3 4 6 8 11 16 20 21 81 27 38 80 97 86 94 93 93 100 99 93 98 97 96 81 64 50 36
5 8 11 14 19 26 26 32 45 99 90 89 96 75 73 94 90 95 97 97 96 98 96 74 46 34 38
10 12 18 25 31 33 35 47 99 97 92 86 97 100 96 96 95 98 98 97 98 97 97 58 32 37 46
12 14 22 33 40 47 53 66 88 93 73 94 96 96 95 93 92 97 97 96 96 97 72 33 44 53 60
13 16 25 45 58 73 82 80 80 96 84 93 93 96 97 96 96 97 94 97 96 73 36 47 62 67 67
16 21 33 58 77 75 90 95 97 96 100 95 94 94 94 94 95 94 98 97 94 40 46 71 75 72 72
20 29 41 70 85 81 76 80 92 98 96 96 95 96 94 91 94 96 98 96 76 44 75 92 89 91 89
27 38 49 76 84 84 85 85 89 92 96 95 95 95 94 94 95 95 96 95 74 90 96 96 96 95 91